STARLINK-5605, 55411

Orbit data source: Space-Track

STARLINK-5605, 55411 is a payload satellite owned by SpaceX/Seattle (US) in LEO that was launched on Tue, 31 Jan 2023 UTC via an FALCON 9 launch vehicle from the Air Force Western Test Range (AFWTR). Payload-class satellites include a variety of spacecraft equipped with specific instruments for various scientific and technological missions. These include communications satellites like Starlink; space stations such as the ISS; scientific satellites like the Hubble; Earth observation satellites from companies like Planet Labs, Umbra, and HawkEye 360; GPS; miniature CubeSats for education and research; and military/defense satellites.

Loading next visibility...
Identifier
55411, 2023-014W
Orbit
LEO
Country
Flag of USUS
Related business
Manufacturer
SpaceX/Seattle
Mission
Operational Commercial Communications
Bus & Motor
STARLINK, Unknown motor
Mass
305 kg wet, ~290 kg dry
Launch date (UTC)
2023-01-31 (3 years ago)
Launch vehicle
FALCON 9
Launch site
Air Force Western Test Range (AFWTR)
Object type
Payload
Rocket body
Debris
Shape & HBR
Box + 1 Pan, 10.1 m
Radar Cross Section
13.562 m², Large (>1 m²)

Expand to show TLE details & history
Last TLE update: 2 days ago

TLE from 2 days ago
0 STARLINK-5605
1 55411U 23014W   26171.31929264  .00000512  00000-0  50677-4 0  9996
2 55411  69.9995 165.8797 0003325 263.5788  96.4992 14.98330271187429
Epoch: 2026-06-20T07:39Z
TLE epoch observation values (Epoch: 2026-06-20T07:39:46.884Z)
Latitude
-0.00005°
Longitude
142.39871°
Altitude
574.741 km
Speed
7.574 km/s
True Right ascension
11h 03m 31s
True Declination
0° 00' 00"
Sunlit
Object was in daylight at epoch
Visualization orbit readout
Latitude
Unknown
Longitude
Unknown
Altitude
Unknown
Speed
Unknown
Apparent Right ascension
Unknown
Apparent Declination
Unknown
Sunlit
N/A
Visualization observer readout
Local Sidereal Time
21:31:17
Azimuth
Unknown
Elevation
Unknown
Doppler factor
Unknown
Orbital elements
Apogee altitude
572.314 km
Perigee altitude
567.693 km
Semi-major axis
6,948.14 km
Eccentricity
0.00033
Inclination
69.9995°
RAAN
165.8797°
Arg. of periapsis
263.5788°
True anomaly
96.53706°
Mean anomaly
96.4992°
Eccentric anomaly
96.51813°
Mean motion
3.74749 °/min
Orbital period
96.06 mins
BSTAR
0.000050677
Loading maneuver chart data...
Computing Atmospheric mass density...

Documentation

Showing up to 5 results
|